Weather History for Morristown, NJ

Change the Weather History Date:

Tuesday, May 29, 2012

  Actual Average Record
Temperature  
Mean Temperature 80 °F -  
Max Temperature 91 °F 76 °F 91 °F (1977)
Min Temperature 68 °F 51 °F 31 °F (1936)
Cooling Degree Days 14    
Growing Degree Days 30 (Base 50)    
Moisture  
Dew Point 69 °F    
Average Humidity 84    
Maximum Humidity 100    
Minimum Humidity 43    
Precipitation  
Precipitation 0.00 in - - ()
Sea Level Pressure  
Sea Level Pressure 29.83 in    
Wind  
Wind Speed 3 mph (WSW)    
Max Wind Speed 22 mph    
Max Gust Speed 36 mph    
Visibility 8 miles    
Events Rain , Thunderstorm    
Averages and records for this station are not official NWS values.
T = Trace of Precipitation, MM = Missing Value Source: NWS Daily Summary

Daily Weather History Graph

Daily Weather History Graph

Search for Another Location

Airport:

Trip Planner

Search our weather history database for the weather conditions in past years. The results will help you decide how hot, cold, wet, or windy it might be!

Date:

Astronomy

May. 29, 2012 Rise Set
Actual Time 5:29 AM EDT 8:21 PM EDT
Civil Twilight 4:57 AM EDT 8:53 PM EDT
Nautical Twilight 4:16 AM EDT 9:34 PM EDT
Astronomical Twilight 3:29 AM EDT 10:22 PM EDT
Moon 1:46 PM EDT (5/29) 1:24 AM EDT (5/29)
Length of Visible Light 15h 56m
Length of Day
14h 51m
First Quarter, 59% of the Moon is Illuminated
May 29
First Quarter
Jun 4
Full
Jun 11
Last Quarter
Jun 19
New
Jun 26
First Quarter

Hourly Weather History & Observations

Time (EDT) Temp. Heat Index Dew Point Humidity Pressure Visibility Wind Dir Wind Speed Gust Speed Precip Events Conditions
12:15 AM 69.8 °F - 69.8 °F 100% 29.90 in 7.0 mi Calm Calm - N/A   Clear
12:35 AM 69.8 °F - 69.8 °F 100% 29.90 in 7.0 mi Calm Calm - N/A   Clear
12:55 AM 69.8 °F - 68.0 °F 94% 29.89 in 7.0 mi Calm Calm - N/A   Clear
1:15 AM 69.8 °F - 69.8 °F 100% 29.89 in 7.0 mi Calm Calm - N/A   Clear
1:35 AM 68.0 °F - 68.0 °F 100% 29.88 in 7.0 mi Calm Calm - N/A   Clear
1:55 AM 68.0 °F - 68.0 °F 100% 29.88 in 7.0 mi Calm Calm - N/A   Clear
2:15 AM 68.0 °F - 68.0 °F 100% 29.87 in 5.0 mi Calm Calm - N/A   Clear
2:35 AM 69.8 °F - 69.8 °F 100% 29.87 in 5.0 mi Calm Calm - N/A   Clear
2:55 AM 69.8 °F - 69.8 °F 100% 29.87 in 7.0 mi Calm Calm - N/A   Clear
3:15 AM 68.0 °F - 68.0 °F 100% 29.86 in 5.0 mi Calm Calm - N/A   Clear
3:35 AM 69.8 °F - 68.0 °F 94% 29.86 in 4.0 mi Calm Calm - N/A   Clear
3:55 AM 68.0 °F - 68.0 °F 100% 29.86 in 4.0 mi Calm Calm - N/A   Clear
4:15 AM 68.0 °F - 68.0 °F 100% 29.86 in 5.0 mi Calm Calm - N/A   Clear
4:35 AM 69.8 °F - 69.8 °F 100% 29.86 in 7.0 mi Calm Calm - N/A   Clear
4:55 AM 71.6 °F - 69.8 °F 94% 29.86 in 7.0 mi South 3.5 mph - N/A   Clear
5:15 AM 71.6 °F - 69.8 °F 94% 29.86 in 7.0 mi Calm Calm - N/A   Clear
5:35 AM 69.8 °F - 69.8 °F 100% 29.86 in 4.0 mi Calm Calm - N/A   Clear
5:55 AM 68.0 °F - 68.0 °F 100% 29.87 in 5.0 mi Calm Calm - N/A   Clear
6:15 AM 69.8 °F - 69.8 °F 100% 29.86 in 2.5 mi Calm Calm - N/A   Clear
6:35 AM 71.6 °F - 71.6 °F 100% 29.87 in 7.0 mi Calm Calm - N/A   Clear
6:45 AM 75.2 °F - 71.6 °F 89% 29.87 in 15.0 mi WSW 6.9 mph - N/A   Clear
7:45 AM 77.0 °F - 71.6 °F 83% 29.87 in 15.0 mi West 8.1 mph - N/A   Clear
8:45 AM 80.6 °F 84.6 °F 71.6 °F 74% 29.85 in 15.0 mi WSW 6.9 mph - N/A   Clear
9:45 AM 82.4 °F 87.2 °F 71.6 °F 70% 29.83 in 10.0 mi SW 10.4 mph - N/A   Clear
10:45 AM 86.0 °F 91.8 °F 71.6 °F 62% 29.82 in 10.0 mi SW 10.4 mph - N/A   Clear
11:45 AM 87.8 °F 93.8 °F 71.6 °F 58% 29.82 in 10.0 mi SW 10.4 mph 16.1 mph N/A   Partly Cloudy
12:45 PM 89.6 °F 96.2 °F 71.6 °F 55% 29.81 in 10.0 mi WSW 13.8 mph - N/A   Scattered Clouds
1:45 PM 89.6 °F 94.7 °F 69.8 °F 52% 29.78 in 10.0 mi SW 13.8 mph - N/A   Scattered Clouds
2:50 PM 91.4 °F 95.4 °F 68.0 °F 46% 29.73 in 10.0 mi WSW 16.1 mph 21.9 mph N/A   Scattered Clouds
3:45 PM 91.4 °F 95.4 °F 68.0 °F 46% 29.70 in 10.0 mi SW 13.8 mph 23.0 mph N/A   Scattered Clouds
4:45 PM 89.6 °F 92.2 °F 66.2 °F 46% 29.71 in 15.0 mi WSW 13.8 mph 21.9 mph N/A   Mostly Cloudy
5:54 PM 89.6 °F 91.1 °F 64.4 °F 43% 29.70 in 10.0 mi WSW 11.5 mph 18.4 mph N/A   Mostly Cloudy
6:45 PM 87.8 °F 90.4 °F 66.2 °F 49% 29.70 in 10.0 mi WSW 10.4 mph 17.3 mph N/A   Mostly Cloudy
7:45 PM 78.8 °F - 64.4 °F 61% 29.75 in 7.0 mi NNW 21.9 mph 35.7 mph N/A Rain , Thunderstorm Thunderstorms and Rain
8:45 PM 71.6 °F - 66.2 °F 83% 29.77 in 7.0 mi Calm Calm - N/A Rain Light Rain
9:45 PM 69.8 °F - 66.2 °F 88% 29.79 in 7.0 mi West 5.8 mph - N/A Rain Rain
10:55 PM 68.0 °F - 68.0 °F 100% 29.79 in 10.0 mi Calm Calm - N/A Rain Light Rain
11:15 PM 68.0 °F - 66.2 °F 94% 29.79 in 10.0 mi Calm Calm - N/A Rain Light Rain
11:35 PM 68.0 °F - 66.2 °F 94% 29.79 in 10.0 mi Calm Calm - N/A Rain Rain
11:55 PM 68.0 °F - 68.0 °F 100% 29.78 in 10.0 mi Calm Calm - N/A   Light Drizzle